Weather Roundup
Issued by NWS Springfield, MO

Home | Current Version | Previous Version | Text Only | Print | Product List | Glossary On
Versions: 1 2 3 4 5 6 7 8 9 10 11 12 13 14 15 16 17 18 19 20 21 22 23 24 25 26 27 28 29 30 31 32 33 34 35 36 37 38 39 40 41 42 43 44 45 46 47 48 49 50
000
NZUS99 KSGF 290007
HRRSGF

HOURLY WEATHER
NATIONAL WEATHER SERVICE SPRINGFIELD MO
700 PM CDT SAT MAR 28 2015

......SGF CWA......

CITY           SKY/WX    TMP DP  RH WIND       PRES   REMARKS
SPRINGFIELD    CLEAR     43  32  65 SE15      30.15R
6HR MIN TEMP:  40; 6HR MAX TEMP:  47;

JOPLIN         CLEAR     54  36  50 E16       30.09R
6HR MIN TEMP:  54; 6HR MAX TEMP:  60;

WEST PLAINS    CLOUDY    37  30  75 SE8       30.24S WCI  31
6HR MIN TEMP:  33; 6HR MAX TEMP:  38;

ROLLA          PTCLDY    45  29  53 S9        30.18S
6HR MIN TEMP:  40; 6HR MAX TEMP:  46;

OSAGE BEACH    PTCLDY    45  28  53 SE7       30.20S
BRANSON        CLEAR     39  32  75 E14G21    30.18R WCI  31

......SURROUNDING SGF CWA......

CITY           SKY/WX    TMP DP  RH WIND       PRES   REMARKS
CHANUTE        CLEAR     58  40  51 E13       30.07R
PARSONS        CLEAR     61  43  51 VRB7      30.06R
COFFEYVILLE    CLEAR     64  42  44 SE8       30.05R
EMPORIA        PTCLDY    58  37  45 SE15      30.04S
GROVE OK       CLEAR     64  43  45 SE8       30.07S
ROGERS AR      CLEAR     55  39  54 E10       30.11R
SILOAM SPRINGS CLEAR     57  39  51 S10       30.10R
HARRISON AR    CLEAR     43  32  65 E13       30.17R
NEAR YELLVILLE CLOUDY    39  28  65 E10G17    30.22S WCI  32

......KANSAS AND MISSOURI......

CITY           SKY/WX    TMP DP  RH WIND       PRES   REMARKS
KANSAS CTY INT CLEAR     50  31  48 S14       30.11S
DOWNTOWN KC    CLEAR     52  30  43 SE13      30.12S
COLUMBIA       CLEAR     46  27  47 SE10      30.19S
SEDALIA        CLEAR     48  30  49 SE10      30.17S
ST JOSEPH      CLEAR     51  31  46 SE13      30.11S
ST LOUIS       CLEAR     44  17  33 E10       30.26S
SPIRIT OF STL  CLEAR     44  17  33 E8        30.25R
KIRKSVILLE     CLEAR     43  24  47 SE13      30.19S
WICHITA        CLEAR     70  40  33 SE16      29.98R
TOPEKA         CLEAR     54  33  45 SE15      30.09R
OLATHE         CLEAR     49  31  49 SE12      30.11S

......TENNESSEE......

CITY           SKY/WX    TMP DP  RH WIND       PRES   REMARKS
MEMPHIS        CLOUDY    43  24  47 E6        30.28R
NASHVILLE      CLEAR     42  12  29 NE9       30.27R

......ARKANSAS.......

CITY           SKY/WX    TMP DP  RH WIND       PRES   REMARKS
FAYETTEVILLE   CLEAR     55  41  59 S9        30.10R
FT SMITH       CLEAR     53  40  61 E17       30.12R
LITTLE ROCK    PTCLDY    47  30  51 E12       30.25R

......OKLAHOMA.......

CITY           SKY/WX    TMP DP  RH WIND       PRES   REMARKS
TULSA          PTCLDY    66  43  43 SE9       30.02R
PONCA CITY     CLEAR     71  41  33 SE15      29.99R
MCALESTER      CLEAR     72  42  34 E7        30.02R
OKLAHOMA CITY  CLEAR     75  45  34 S8        29.97R

......IOWA............

CITY           SKY/WX    TMP DP  RH WIND       PRES   REMARKS
DES MOINES     PTCLDY    48  19  31 S15       30.13S
QUAD CITIES    CLEAR     39  10  30 S9        30.23F WCI  33

......ILLINOIS........

CITY           SKY/WX    TMP DP  RH WIND       PRES   REMARKS
QUINCY         CLEAR     41  19  41 SE8       30.22F
CHICAGO        CLEAR     31  10  41 SE9       30.28S WCI  23



USA.gov is the U.S. government's official web portal to all federal, state and local government web resources and services.